sat.trackr.live / text

‹ back to catalog

STARLINK-36751

NORAD 67729 · 2026-026J

PAYLOAD ACTIVE UNKNOWN

§ Identity

Operator
Country
US
Launch date
2026-02-11
Launch site
AFWTR
Launch vehicle
Mass (kg)
RCS (m²)

Purposes: comms

External: N2YO · Heavens-Above · Gunter

§ Orbital elements

Epoch: 2026-05-25T03:41:31.120224Z

Period
93.91 min
Inclination
97.2845°
Eccentricity
0.0000218
Mean motion
15.33445535 rev/d
Perigee alt
465.4 km
Apogee alt
465.7 km
Semi-major
6,843.7 km
B*
5.0168e-4
RAAN
198.6675°
Arg perigee
193.7337°
Mean anomaly
166.3899°
Rev number
1,584

§ Raw data

STARLINK-367511 67729U 26026J   26145.15383241  .00016156  00000+0  50168-3 0  99932 67729  97.2845 198.6675 0000218 193.7337 166.3899 15.33445535 15842

JSON: /api/v1/satellites/67729 · /tle

For live sub-satellite position, see the globe view (requires WebGL).

§ Visibility from observer

Set your observer location to see the next 7 days of passes ≥ 10°. The values pass through the URL so the page stays shareable.

No JS? Fill the form by hand. The geolocation button needs JavaScript.